Tracking 29892 objects as of 21-Nov-2024
HD Live streaming from Space Station
objects crossing your sky now

COSMOS 252 DEB

Track COSMOS 252 DEB now!
10-day predictions


NORAD ID: 3843
Int'l Code: 1968-097BG
Perigee: 746.5 km
Apogee: 1,783.5 km
Inclination: 62.3 °
Period: 110.7 minutes
Semi major axis: 7635 km
RCS: 0.0454 m2 (small)
Launch date: November 1, 1968
Source: Commonwealth of Independent States (former USSR) (CIS)
Launch site: TYURATAM MISSILE AND SPACE COMPLEX (TTMTR)

Note: This is SATELLITE DEBRIS
Your satellite tracking list
Your tracking list is empty




NASA's NSSDC Master Catalog

Two Line Element Set (TLE):
1 03843U 68097BG  24325.77211199  .00001605  00000-0  18451-2 0  9994
2 03843  62.2694  92.6743 0679013 345.4510  12.7759 13.01087176592593
Source of the keplerian elements: AFSPC